AJB4014 SABE-SAAR

Flight info

Callsign AJB4014
Flight time N/A
Altitude 16000
Route ATOVO4B ATOVO W5 ESKON
Aircraft AT76/M-SDFGIRY/S

Departure

Time 2026-05-03 20:18
Airport Aeroparque Jorge Newbery (SABE)

Arrival

Time N/A
Airport Rosario Islas Malvinas International Airport (SAAR)
Time Latitude Longitude Altitude Speed Heading
2026-05-03 20:15 -34.56245 -58.40688 26 ft 13 kts 122°
2026-05-03 20:15 -34.56297 -58.40593 26 ft 14 kts 123°
2026-05-03 20:15 -34.56355 -58.40501 25 ft 14 kts 137°
2026-05-03 20:15 -34.56413 -58.40443 23 ft 8 kts 139°
2026-05-03 20:16 -34.56442 -58.40412 23 ft 3 kts 139°
2026-05-03 20:16 -34.56483 -58.40371 23 ft 9 kts 146°
2026-05-03 20:16 -34.56550 -58.40384 22 ft 12 kts 221°
2026-05-03 20:16 -34.56545 -58.40459 22 ft 8 kts 303°
2026-05-03 20:17 -34.56515 -58.40515 23 ft 11 kts 304°
2026-05-03 20:17 -34.56479 -58.40580 24 ft 8 kts 304°
2026-05-03 20:17 -34.56399 -58.40716 22 ft 37 kts 306°
2026-05-03 20:17 -34.56189 -58.41100 26 ft 79 kts 302°
2026-05-03 20:18 -34.55792 -58.41846 40 ft 125 kts 303°
2026-05-03 20:18 -34.55278 -58.42788 254 ft 144 kts 304°
2026-05-03 20:18 -34.54672 -58.43903 548 ft 162 kts 307°
2026-05-03 20:18 -34.54067 -58.44946 1453 ft 139 kts 319°
2026-05-03 20:19 -34.53217 -58.45509 1846 ft 154 kts 349°
2026-05-03 20:19 -34.52115 -58.45496 2402 ft 155 kts 11°
2026-05-03 20:19 -34.51150 -58.45131 3171 ft 142 kts
2026-05-03 20:19 -34.50174 -58.45330 3501 ft 151 kts 333°
2026-05-03 20:20 -34.49203 -58.45979 3777 ft 166 kts 329°
2026-05-03 20:20 -34.48201 -58.46673 4313 ft 164 kts 328°
2026-05-03 20:20 -34.47416 -58.47591 4923 ft 156 kts 304°
2026-05-03 20:20 -34.46800 -58.48694 5336 ft 162 kts 304°
2026-05-03 20:21 -34.46181 -58.49857 5779 ft 165 kts 298°
2026-05-03 20:21 -34.45637 -58.51082 6277 ft 165 kts 298°
2026-05-03 20:21 -34.45061 -58.52282 6640 ft 165 kts 300°
2026-05-03 20:21 -34.44435 -58.53453 6928 ft 166 kts 303°
2026-05-03 20:22 -34.43767 -58.54588 7265 ft 165 kts 304°
2026-05-03 20:22 -34.43073 -58.55700 7589 ft 166 kts 305°
2026-05-03 20:22 -34.42377 -58.56818 7899 ft 166 kts 305°
2026-05-03 20:22 -34.41680 -58.57938 8220 ft 167 kts 304°
2026-05-03 20:23 -34.40986 -58.59059 8544 ft 166 kts 304°
2026-05-03 20:23 -34.40290 -58.60184 8848 ft 167 kts 304°
2026-05-03 20:23 -34.39595 -58.61310 9171 ft 168 kts 304°
2026-05-03 20:23 -34.38872 -58.62481 9269 ft 180 kts 305°
2026-05-03 20:24 -34.38098 -58.63732 9317 ft 192 kts 305°
2026-05-03 20:24 -34.37300 -58.65020 9554 ft 192 kts 305°
2026-05-03 20:24 -34.36500 -58.66314 9791 ft 192 kts 304°
2026-05-03 20:24 -34.35699 -58.67610 10018 ft 192 kts 305°
2026-05-03 20:25 -34.34898 -58.68907 10214 ft 193 kts 305°
2026-05-03 20:25 -34.34091 -58.70207 10394 ft 194 kts 304°
2026-05-03 20:25 -34.33282 -58.71514 10585 ft 195 kts 304°
2026-05-03 20:25 -34.32456 -58.72847 10779 ft 196 kts 304°
2026-05-03 20:26 -34.31649 -58.74150 10957 ft 197 kts 304°
2026-05-03 20:26 -34.30826 -58.75477 11143 ft 198 kts 304°
2026-05-03 20:26 -34.29999 -58.76810 11313 ft 198 kts 304°
2026-05-03 20:26 -34.29167 -58.78149 11498 ft 199 kts 304°
2026-05-03 20:27 -34.28319 -58.79512 11671 ft 200 kts 304°
2026-05-03 20:27 -34.27483 -58.80859 11862 ft 201 kts 304°
2026-05-03 20:27 -34.26654 -58.82197 12018 ft 202 kts 304°
2026-05-03 20:27 -34.25796 -58.83574 12186 ft 203 kts 303°
2026-05-03 20:28 -34.24947 -58.84939 12354 ft 204 kts 303°
2026-05-03 20:28 -34.24106 -58.86293 12527 ft 204 kts 303°
2026-05-03 20:28 -34.23251 -58.87668 12695 ft 205 kts 303°
2026-05-03 20:28 -34.22391 -58.89048 12865 ft 206 kts 303°
2026-05-03 20:29 -34.21529 -58.90433 13027 ft 206 kts 303°
2026-05-03 20:29 -34.20666 -58.91818 13194 ft 207 kts 303°
2026-05-03 20:29 -34.19797 -58.93214 13348 ft 208 kts 303°
2026-05-03 20:29 -34.18924 -58.94612 13501 ft 209 kts 303°
2026-05-03 20:30 -34.18047 -58.96018 13645 ft 210 kts 303°
2026-05-03 20:30 -34.17168 -58.97428 13780 ft 210 kts 303°
2026-05-03 20:30 -34.16287 -58.98840 13926 ft 211 kts 303°
2026-05-03 20:30 -34.15402 -59.00259 14037 ft 211 kts 303°
2026-05-03 20:31 -34.14538 -59.01641 14158 ft 212 kts 303°
2026-05-03 20:31 -34.13628 -59.03098 14287 ft 212 kts 303°
2026-05-03 20:31 -34.12739 -59.04521 14421 ft 213 kts 303°
2026-05-03 20:31 -34.11844 -59.05950 14558 ft 213 kts 303°
2026-05-03 20:32 -34.10951 -59.07378 14693 ft 214 kts 302°
2026-05-03 20:32 -34.10054 -59.08809 14814 ft 214 kts 302°
2026-05-03 20:32 -34.09155 -59.10243 14940 ft 214 kts 302°
2026-05-03 20:32 -34.08256 -59.11678 15054 ft 215 kts 302°
2026-05-03 20:33 -34.07355 -59.13117 15181 ft 215 kts 302°
2026-05-03 20:33 -34.06453 -59.14554 15299 ft 215 kts 303°
2026-05-03 20:33 -34.05513 -59.15966 15395 ft 217 kts 304°
2026-05-03 20:33 -34.04544 -59.17363 15503 ft 217 kts 305°
2026-05-03 20:34 -34.03574 -59.18762 15608 ft 218 kts 305°
2026-05-03 20:34 -34.02604 -59.20162 15711 ft 217 kts 305°